Location: Marcé
(47.5801°N, 0.3280°W)
Time: 11:34:30
(UTC+01:00)

Explorer 7 - Pass Details

Date: 13 December 2021
Orbit: 483 x 674 km, 50.3° (Epoch: 19 January)

Event Time Altitude Azimuth Distance (km) Brightness Sun altitude
Exits shadow 06:51:38 36° 301° (WNW) 907 7.4 -17.5°
Maximum altitude 06:53:11 63° 8° (N) 629 7.0 -17.3°
Drops below altitude 10° 06:57:14 10° 91° (E) 1,795 10.6 -16.6°
Sets 06:59:25 0° 94° (E) 2,655 11.9 -16.2°
